DateTimeUTC,F1_A11,F1_S11,BsB_S11,BsG_S11,BsR_S11,BbsB_S11,BbsG_S11,BbsR_S11,BaB_A11,BaG_A11,BaR_A11,T_S11,U_S11,P_S11,T1_A11
2020-02-12T00:00:00Z,00000388,21000608,,,,,,,,,,23.2,00.0,0615.7,30.9
2020-02-12T00:01:00Z,00000388,21000608,,,,,,,,,,23.2,00.0,0615.7,30.9
2020-02-12T00:02:00Z,00000388,21000608,,,,,,,,,,23.2,00.0,0615.7,30.9
2020-02-12T00:03:00Z,00000388,61000608,,,,,,,,,,23.2,00.0,0615.7,30.9
2020-02-12T00:04:00Z,00000388,41000608,0001.05,-000.36,0000.87,-000.07,0000.14,-000.04,-000.11,-000.07,0000.08,23.0,00.0,0616.6,30.9
2020-02-12T00:05:00Z,00000388,01000608,-001.30,0000.70,0000.46,0000.09,-000.24,0000.79,0000.19,0000.05,0000.08,23.0,00.0,0616.6,30.9
2020-02-12T00:06:00Z,00000388,01000608,0000.60,0000.27,-000.37,0000.55,0000.05,-000.06,-000.06,0000.19,-000.06,23.0,00.0,0616.7,30.9
2020-02-12T00:07:00Z,00000388,01000608,-000.34,0000.15,0000.27,0000.74,-000.12,0000.01,0000.11,0000.00,0000.12,23.0,00.0,0616.6,30.9
2020-02-12T00:08:00Z,00000388,01000608,0000.28,0000.08,0000.03,-000.07,0000.15,0000.04,0000.00,0000.03,0000.10,22.9,00.0,0616.6,30.9
2020-02-12T00:09:00Z,00000388,01000608,0000.27,0000.33,0000.17,0001.06,-000.21,0000.38,0000.08,0000.09,-000.10,22.9,00.0,0616.6,30.9
2020-02-12T00:10:00Z,00000388,01000608,-000.50,0000.08,0000.50,0000.10,-000.29,0000.08,0000.19,0000.12,0000.27,22.9,00.0,0616.6,30.9
2020-02-12T00:11:00Z,00000388,01000608,0000.85,0000.28,0000.12,0001.18,-000.15,-000.01,0000.93,0000.64,0000.43,22.9,00.0,0616.7,30.9
2020-02-12T00:12:00Z,00000388,01000608,0001.11,0000.67,0000.61,0000.73,0000.23,0000.07,0003.19,0003.13,0002.17,22.9,00.0,0616.7,30.9
2020-02-12T00:13:00Z,00000388,01000608,0002.01,0001.38,0001.13,-000.32,0000.43,-000.02,0011.03,0009.93,0007.57,22.9,00.0,0616.6,30.9
2020-02-12T00:14:00Z,00000388,01000608,0003.22,0001.43,0000.98,0001.03,0000.44,0000.35,0010.26,0009.01,0006.83,22.8,00.0,0616.7,30.9
2020-02-12T00:15:00Z,00000388,01000608,0002.48,0001.97,0001.34,0000.91,0000.55,0000.16,0011.11,0010.20,0007.73,22.8,00.0,0616.7,30.8
2020-02-12T00:16:00Z,00000388,01000608,0001.40,0001.28,0001.95,0000.19,0000.35,0000.81,0011.41,0010.39,0007.97,22.8,00.0,0616.7,30.9
2020-02-12T00:17:00Z,00000388,01000608,0001.85,0001.17,0000.57,0000.66,0000.31,0000.35,0006.33,0005.88,0004.19,22.9,00.0,0616.7,30.9
2020-02-12T00:18:00Z,00000388,01000608,0000.10,0001.14,0000.26,0001.08,0000.15,0000.20,0005.20,0004.59,0003.68,22.9,00.0,0616.8,30.9
2020-02-12T00:19:00Z,00000388,01000608,0000.51,0000.97,0000.51,0000.33,0000.05,0000.08,0001.96,0001.75,0001.25,23.0,00.0,0616.8,30.9
2020-02-12T00:20:00Z,00000388,01000608,0000.27,0000.40,0000.38,-000.12,0000.27,0000.21,0000.52,0000.57,0000.29,23.0,00.0,0616.7,30.9
2020-02-12T00:21:00Z,00000388,01000608,0000.03,0000.01,0000.32,0000.19,-000.04,0000.13,0000.31,0000.20,0000.12,23.0,00.0,0616.7,30.9
2020-02-12T00:22:00Z,00000388,01000608,-000.66,-000.35,0000.23,0000.40,0000.05,0000.23,0000.08,-000.04,0000.22,23.0,00.0,0616.7,30.9
2020-02-12T00:23:00Z,00000388,01000608,0000.32,0000.29,0000.09,0000.33,0000.04,0000.31,0000.52,0000.55,0000.26,23.0,00.0,0616.7,30.9
2020-02-12T00:24:00Z,00000388,01000608,0001.75,0000.88,0000.78,0000.26,0000.61,0000.05,0003.97,0003.55,0002.69,23.0,00.0,0616.7,30.9
2020-02-12T00:25:00Z,00000388,01000608,0001.52,0001.56,0000.97,0000.51,0000.42,0000.55,0009.21,0008.32,0006.23,22.9,00.0,0616.7,30.9
2020-02-12T00:26:00Z,00000388,01000608,-000.23,0000.12,0000.08,-000.16,-000.52,0000.26,0000.52,0000.36,0000.43,22.9,00.0,0616.7,30.9
2020-02-12T00:27:00Z,00000388,01000608,-001.09,0000.19,0000.25,0000.24,0000.48,-000.23,0000.29,0000.33,0000.14,22.9,00.0,0616.6,30.9
2020-02-12T00:28:00Z,00000388,01000608,0000.35,-000.54,0000.12,0000.56,-000.20,0000.13,-000.09,0000.04,0000.11,22.9,00.0,0616.7,30.9
2020-02-12T00:29:00Z,00000388,01000608,-000.15,0000.59,0000.32,0001.14,-000.09,0000.08,0000.23,-000.03,-000.06,22.9,00.0,0616.7,30.9
2020-02-12T00:30:00Z,00000388,01000608,-000.72,-000.24,0000.59,0000.20,-000.31,-000.11,0000.25,0000.24,0000.17,22.9,00.0,0616.7,30.9
2020-02-12T00:31:00Z,00000388,01000608,-000.14,0000.12,0000.15,0000.26,-000.14,-000.03,0000.10,0000.13,0000.12,22.9,00.0,0616.7,30.9
2020-02-12T00:32:00Z,00000388,01000608,-001.00,0000.02,0000.43,-000.10,-000.09,0000.20,-000.01,-000.03,0000.08,22.9,00.0,0616.7,30.9
2020-02-12T00:33:00Z,00000388,01000608,0001.61,0000.14,-000.10,0000.86,-000.05,0000.28,-000.05,0000.07,-000.06,23.0,00.0,0616.8,30.9
2020-02-12T00:34:00Z,00000388,01000608,0000.86,0000.15,0000.36,0000.07,0000.43,-000.42,0000.06,0000.25,-000.05,23.0,00.0,0616.8,30.9
2020-02-12T00:35:00Z,00000388,01000608,0000.22,0000.50,-000.17,-000.43,0000.20,0000.25,0000.20,-000.01,0000.15,23.0,00.0,0616.8,30.9
2020-02-12T00:36:00Z,00000388,01000608,-000.19,0000.29,0000.37,0000.23,0000.09,-000.11,0000.09,-000.06,-000.04,23.0,00.0,0616.8,30.9
2020-02-12T00:37:00Z,00000388,01000608,0000.15,0000.02,-000.11,-000.08,-000.15,0000.25,-000.00,0000.00,-000.02,23.0,00.0,0616.8,30.9
2020-02-12T00:38:00Z,00000388,01000608,0000.76,0000.25,0000.22,0000.78,0000.01,-000.45,0000.03,0000.03,0000.04,23.0,00.0,0616.8,30.9
2020-02-12T00:39:00Z,00000388,01000608,-001.42,-000.19,0000.04,0000.68,-000.12,0000.16,0000.18,0000.14,0000.11,22.9,00.0,0616.8,30.9
2020-02-12T00:40:00Z,00000388,01000608,0000.20,0000.17,0000.59,0000.24,0000.32,-000.08,0000.01,-000.03,0000.17,22.9,00.0,0616.8,30.9
2020-02-12T00:41:00Z,00000388,01000608,-002.18,-000.09,0000.29,0000.20,0000.20,0000.06,0000.04,0000.16,-000.03,22.9,00.0,0616.8,30.9
2020-02-12T00:42:00Z,00000388,01000608,0000.20,0000.37,0000.48,0000.11,0000.30,-000.30,0000.03,0000.02,0000.05,22.9,00.0,0616.9,30.9
2020-02-12T00:43:00Z,00000388,01000608,-000.32,0000.16,0000.10,0000.34,0000.35,-000.43,0000.02,-000.07,-000.01,22.9,00.0,0616.9,30.9
2020-02-12T00:44:00Z,00000388,01000608,-000.08,0000.61,0000.39,-000.01,0000.48,-000.11,0000.14,0000.07,-000.04,22.9,00.0,0616.9,30.9
2020-02-12T00:45:00Z,00000388,01000608,0001.14,0000.76,0000.54,-000.03,-000.36,0000.09,0000.05,0000.30,0000.18,22.9,00.0,0616.9,30.9
2020-02-12T00:46:00Z,00000388,01000608,0001.38,0000.17,0000.10,0000.15,0000.08,0000.08,0000.11,-000.02,0000.00,22.9,00.0,0616.9,30.9
2020-02-12T00:47:00Z,00000388,01000608,0000.01,0000.53,0000.44,-000.37,0000.63,-000.03,-000.16,-000.21,-000.11,22.9,00.0,0616.9,30.9
2020-02-12T00:48:00Z,00000388,01000608,-000.01,0000.57,0000.05,0000.12,0000.13,0000.02,0000.24,0000.27,0000.16,22.9,00.0,0616.9,30.9
2020-02-12T00:49:00Z,00000388,01000608,-000.06,0000.49,0000.04,0000.27,0000.12,-000.03,0000.01,0000.08,0000.07,22.9,00.0,0616.9,30.9
2020-02-12T00:50:00Z,00000388,01000608,0000.46,0000.66,0000.12,-000.05,0000.21,-000.08,0000.02,-000.13,-000.04,22.9,00.0,0617.0,30.9
2020-02-12T00:51:00Z,00000388,01000608,-000.13,0000.44,0000.50,-000.17,0000.05,0000.29,-000.00,0000.08,0000.10,22.9,00.0,0617.0,30.9
2020-02-12T00:52:00Z,00000388,01000608,-000.88,0000.17,-000.23,0000.89,0000.21,0000.03,-000.01,0000.03,-000.10,22.9,00.0,0617.0,30.9
2020-02-12T00:53:00Z,00000388,01000608,-000.75,0000.14,-000.00,0001.13,0000.15,-000.12,0000.26,0000.31,0000.14,22.9,00.0,0617.0,30.9
2020-02-12T00:54:00Z,00000388,01000608,0000.10,0000.82,0001.02,0000.74,0000.44,0000.07,0004.44,0003.75,0002.95,22.9,00.0,0617.0,30.9
2020-02-12T00:55:00Z,00000388,01000608,-000.23,0000.86,0000.33,-000.17,0000.13,0000.46,0004.22,0003.89,0002.86,22.9,00.0,0617.0,30.9
2020-02-12T00:56:00Z,00000388,01000608,-000.46,0000.02,0000.13,0000.07,0000.18,0000.02,0000.87,0000.67,0000.71,22.9,00.0,0617.0,30.9
2020-02-12T00:57:00Z,00000388,41000608,,,,,,,,,,22.9,00.0,0617.0,30.9
2020-02-12T00:58:00Z,00000388,61000608,,,,,,,,,,23.0,00.0,0616.1,30.9
2020-02-12T00:59:00Z,00000388,21000608,,,,,,,,,,23.1,00.0,0616.0,30.9
2020-02-12T01:00:00Z,00000388,21000608,,,,,,,,,,23.1,00.0,0616.0,30.8
2020-02-12T01:01:00Z,00000388,21000608,,,,,,,,,,23.1,00.0,0616.0,30.9
2020-02-12T01:02:00Z,00000388,21000608,,,,,,,,,,23.1,00.0,0616.0,30.9
2020-02-12T01:03:00Z,00000388,61000608,,,,,,,,,,23.1,00.0,0616.0,30.9
2020-02-12T01:04:00Z,00000388,41000608,0000.82,0000.05,0000.44,0000.44,-000.15,0000.14,0003.38,0003.21,0002.35,23.0,00.0,0616.9,30.9
2020-02-12T01:05:00Z,00000388,01000608,0000.67,0000.53,0000.05,-000.12,-000.19,0000.26,0000.25,0000.17,0000.07,22.9,00.0,0616.9,30.9
2020-02-12T01:06:00Z,00000388,01000608,-000.50,0000.50,0000.29,0000.31,0000.15,0000.07,0000.21,0000.05,0000.15,22.9,00.0,0616.9,30.9
2020-02-12T01:07:00Z,00000388,01000608,0000.06,0000.62,0000.44,-000.39,-000.07,0000.00,-000.02,0000.15,0000.01,22.9,00.0,0616.9,30.9
2020-02-12T01:08:00Z,00000388,01000608,0001.18,0000.02,-000.03,0000.10,-000.51,-000.35,0000.07,-000.09,-000.11,22.9,00.0,0616.8,30.9
2020-02-12T01:09:00Z,00000388,01000608,-000.00,0000.19,0000.56,0001.09,-000.27,-000.11,0000.05,-000.04,0000.11,22.9,00.0,0616.8,30.9
2020-02-12T01:10:00Z,00000388,01000608,-000.30,-000.04,-000.13,-000.13,-000.25,-000.28,0000.09,0000.23,0000.08,22.9,00.0,0616.7,30.9
2020-02-12T01:11:00Z,00000388,01000608,0000.98,0000.31,-000.05,0000.46,0000.08,-000.01,0000.03,0000.12,-000.02,22.9,00.0,0616.7,30.9
2020-02-12T01:12:00Z,00000388,01000608,-000.10,-000.12,0000.31,0000.14,-000.15,-000.08,0000.14,-000.06,0000.08,22.9,00.0,0616.6,30.9
2020-02-12T01:13:00Z,00000388,01000608,-000.48,-000.13,-000.03,0001.26,-000.04,0000.39,-000.00,0000.10,0000.12,22.9,00.0,0616.6,30.9
2020-02-12T01:14:00Z,00000388,01000608,0001.68,-000.37,0000.17,-000.25,-000.10,0000.43,0000.17,0000.04,0000.22,22.9,00.0,0616.6,30.9
2020-02-12T01:15:00Z,00000388,01000608,-000.50,0000.38,0000.16,0000.79,-000.09,0000.08,0000.17,0000.44,0000.07,22.9,00.0,0616.6,30.9
2020-02-12T01:16:00Z,00000388,01000608,-000.04,0000.42,0000.07,0000.36,-000.33,-000.43,0000.14,0000.07,0000.04,22.9,00.0,0616.6,30.9
2020-02-12T01:17:00Z,00000388,01000608,0000.27,0000.46,0000.01,0000.09,-000.17,0000.05,0000.11,-000.10,-000.00,22.9,00.0,0616.6,30.9
2020-02-12T01:18:00Z,00000388,01000608,0001.04,0000.46,0000.07,-000.08,-000.12,0000.03,0000.08,0000.23,0000.16,22.9,00.0,0616.5,30.9
2020-02-12T01:19:00Z,00000388,01000608,0000.08,0000.25,0000.39,-000.08,0000.08,-000.03,0000.02,-000.02,-000.14,22.9,00.0,0616.5,30.9
2020-02-12T01:20:00Z,00000388,01000608,0000.11,0000.31,0000.20,-000.08,-000.48,0000.19,-000.02,0000.07,0000.17,23.0,00.0,0616.5,30.9
2020-02-12T01:21:00Z,00000388,01000608,0001.25,0000.31,-000.04,0000.31,0000.09,-000.01,0000.19,0000.20,0000.05,22.9,00.0,0616.5,30.9
2020-02-12T01:22:00Z,00000388,01000608,0000.14,0000.07,0000.04,0000.68,-000.18,0000.32,-000.04,-000.06,-000.04,23.0,00.0,0616.5,30.9
2020-02-12T01:23:00Z,00000388,01000608,0000.84,0000.26,-000.02,0000.38,-000.18,0000.03,0000.05,0000.09,-000.08,22.9,00.0,0616.5,30.9
2020-02-12T01:24:00Z,00000388,01000608,-000.46,0000.57,-000.04,0000.74,-000.14,0000.50,0000.17,0000.02,0000.14,22.9,00.0,0616.5,30.9
2020-02-12T01:25:00Z,00000388,01000608,0000.13,0000.99,0000.29,0000.40,-000.21,-000.16,-000.05,0000.00,-000.17,23.0,00.0,0616.4,30.9
2020-02-12T01:26:00Z,00000380,01000600,-000.37,0000.23,-000.14,-000.06,-000.25,-000.07,0000.11,0000.02,0000.21,23.0,00.0,0616.4,30.9
2020-02-12T01:27:00Z,00000380,01000600,-000.15,0000.41,-000.14,-000.51,-000.71,0000.07,0000.15,0000.14,0000.03,23.0,00.0,0616.4,30.9
2020-02-12T01:28:00Z,00000380,01000600,0001.75,0000.34,0000.57,0000.20,-000.34,0000.49,-000.21,-000.01,0000.07,23.0,00.0,0616.4,30.9
2020-02-12T01:29:00Z,00000380,01000600,0000.61,0000.38,0000.16,0000.65,-000.08,-000.11,0000.22,-000.01,-000.08,23.0,00.0,0616.5,30.9
2020-02-12T01:30:00Z,00000380,01000600,0000.70,0000.14,-000.21,0000.56,-000.46,0000.43,0000.08,0000.19,0000.20,23.0,00.0,0616.5,30.9
2020-02-12T01:31:00Z,00000380,01000600,0000.98,-000.10,0000.15,-000.30,-000.14,0000.10,-000.15,-000.19,0000.02,23.0,00.0,0616.5,30.9
2020-02-12T01:32:00Z,00000380,01000600,-000.33,-000.12,-000.16,-000.25,0000.25,-000.12,-000.05,-000.17,-000.08,23.0,00.0,0616.6,30.9
2020-02-12T01:33:00Z,00000380,01000600,0000.14,0000.20,0000.17,-000.20,0000.03,-000.02,0000.11,0000.22,0000.02,23.0,00.0,0616.6,30.9
2020-02-12T01:34:00Z,00000380,01000600,-000.77,0000.88,0000.00,0000.82,-000.29,0000.28,-000.11,0000.01,0000.04,23.0,00.0,0616.6,30.9
2020-02-12T01:35:00Z,00000380,01000600,-001.31,0000.34,0000.11,-000.25,-000.02,0000.22,0000.14,0000.06,-000.05,23.0,00.0,0616.7,30.9
2020-02-12T01:36:00Z,00000380,01000600,0000.77,0000.19,0000.03,0000.21,-000.44,-000.02,-000.08,-000.11,-000.07,23.0,00.0,0616.7,30.9
2020-02-12T01:37:00Z,00000380,01000600,0001.28,0000.84,0000.50,0000.65,0000.20,-000.11,-000.22,-000.32,-000.09,23.0,00.0,0616.8,30.9
2020-02-12T01:38:00Z,00000380,01000600,0000.59,-000.12,0000.06,0000.68,-000.23,0000.04,-000.06,-000.08,0000.01,23.0,00.0,0616.8,30.9
2020-02-12T01:39:00Z,00000380,01000600,-001.35,0000.40,0000.02,-000.09,-000.29,0000.43,0000.01,0000.03,-000.21,23.0,00.0,0616.7,30.9
2020-02-12T01:40:00Z,00000380,01000600,0000.44,0000.39,0000.49,-000.28,0000.05,-000.12,-000.03,0000.12,0000.25,23.0,00.0,0616.7,30.9
2020-02-12T01:41:00Z,00000380,01000600,0000.23,0000.65,-000.02,0000.45,-000.39,0000.02,0000.13,0000.02,-000.03,23.0,00.0,0616.7,30.9
2020-02-12T01:42:00Z,00000380,01000600,-000.00,0000.20,0000.42,0000.59,0000.05,0000.10,-000.11,-000.00,-000.12,23.0,00.0,0616.7,30.9
2020-02-12T01:43:00Z,00000380,01000600,0000.85,0000.22,0000.02,0001.04,-000.06,-000.01,-000.03,-000.26,0000.09,23.0,00.0,0616.7,30.9
2020-02-12T01:44:00Z,00000380,01000600,0000.69,0000.60,-000.17,0000.28,0000.05,0000.44,0000.02,0000.16,-000.10,23.0,00.0,0616.7,30.9
2020-02-12T01:45:00Z,00000380,01000600,0000.60,0000.23,0000.17,0000.14,0000.07,-000.10,-000.09,0000.02,0000.01,23.0,00.0,0616.7,30.9
2020-02-12T01:46:00Z,00000380,01000600,0000.44,0000.46,0000.31,0000.35,-000.39,0000.26,0000.02,-000.11,-000.24,23.0,00.0,0616.8,30.9
2020-02-12T01:47:00Z,00000380,01000600,-001.26,0000.44,0000.16,0000.48,-000.24,0000.05,-000.16,-000.07,0000.08,23.0,00.0,0616.8,30.9
2020-02-12T01:48:00Z,00000380,01000600,0000.86,-000.12,-000.25,0000.89,-000.09,0000.13,-000.15,-000.22,-000.10,23.0,00.0,0616.8,30.9
2020-02-12T01:49:00Z,00000380,01000600,0000.36,0000.28,0000.29,-000.20,0000.38,0000.16,0000.25,0000.17,0000.18,23.0,00.0,0616.8,30.9
2020-02-12T01:50:00Z,00000380,01000600,-000.46,0000.27,0000.06,0000.40,-000.23,0000.32,-000.09,0000.03,0000.05,23.0,00.0,0616.8,30.9
2020-02-12T01:51:00Z,00000380,01000600,0000.60,0000.23,-000.03,-000.56,-000.26,-000.08,0000.06,0000.05,0000.01,23.0,00.0,0616.8,30.9
2020-02-12T01:52:00Z,00000380,01000600,0000.94,0000.62,-000.01,0000.76,-000.07,-000.27,0000.12,0000.11,0000.24,23.0,00.0,0616.8,30.9
2020-02-12T01:53:00Z,00000380,01000600,0000.33,0000.07,0000.20,0001.13,0000.12,-000.20,-000.08,-000.09,-000.26,23.0,00.0,0616.8,30.9
2020-02-12T01:54:00Z,00000380,01000600,0000.51,0000.58,0000.18,0000.06,-000.50,0000.32,-000.09,0000.03,-000.02,23.0,00.0,0616.9,30.9
2020-02-12T01:55:00Z,00000380,01000600,0000.40,0000.85,0000.46,0000.80,0000.03,0000.10,0000.04,-000.11,-000.01,23.0,00.0,0616.9,30.9
2020-02-12T01:56:00Z,00000380,01000600,0000.65,0000.14,0000.44,0000.05,-000.15,0000.11,-000.18,-000.13,-000.01,23.0,00.0,0617.0,30.9
2020-02-12T01:57:00Z,00000380,41000600,,,,,,,,,,23.1,00.0,0616.8,30.9
2020-02-12T01:58:00Z,00000380,61000600,,,,,,,,,,23.1,00.0,0616.1,30.9
2020-02-12T01:59:00Z,00000380,21000600,,,,,,,,,,23.2,00.0,0616.1,30.9
2020-02-12T02:00:00Z,00000380,21000600,,,,,,,,,,23.2,00.0,0616.1,30.9
2020-02-12T02:01:00Z,00000380,21000600,,,,,,,,,,23.2,00.0,0616.1,30.9
2020-02-12T02:02:00Z,00000380,21000600,,,,,,,,,,23.3,00.0,0616.1,30.9
2020-02-12T02:03:00Z,00000380,61000600,,,,,,,,,,23.3,00.0,0616.1,30.9
2020-02-12T02:04:00Z,00000388,41000608,0000.50,0000.35,0000.29,0000.44,0000.44,-000.33,0000.10,0000.14,0000.04,23.2,00.0,0616.9,30.9
2020-02-12T02:05:00Z,00000388,01000608,0000.49,0000.78,0000.32,0000.83,0000.11,0000.10,0000.09,0000.06,-000.08,23.1,00.0,0616.9,30.9
2020-02-12T02:06:00Z,00000388,01000608,0001.08,0000.57,0000.20,-000.53,0000.15,-000.21,-000.04,0000.05,0000.07,23.1,00.0,0616.9,30.9
2020-02-12T02:07:00Z,00000388,01000608,0000.90,0000.22,0000.01,-000.61,0000.05,0000.49,0000.10,0000.06,0000.09,23.1,00.0,0616.9,30.9
2020-02-12T02:08:00Z,00000388,01000608,0001.69,0000.49,0000.08,-000.76,0000.46,-000.00,-000.04,-000.02,0000.00,23.1,00.0,0616.9,30.9
2020-02-12T02:09:00Z,00000388,01000608,0000.23,0001.04,-000.04,0000.06,0000.15,0000.03,0000.00,-000.05,-000.10,23.1,00.0,0616.9,30.9
2020-02-12T02:10:00Z,00000388,01000608,0000.43,0000.10,0000.29,-000.53,0000.22,-000.00,-000.07,-000.04,-000.02,23.0,00.0,0616.9,30.9
2020-02-12T02:11:00Z,00000388,01000608,0000.39,0000.48,-000.03,-000.81,0000.14,0000.58,0000.13,0000.09,0000.09,23.0,00.0,0616.9,30.9
2020-02-12T02:12:00Z,00000388,01000608,0001.10,0000.34,0000.08,-000.17,0000.51,0000.25,-000.16,-000.06,-000.01,23.0,00.0,0616.9,30.9
2020-02-12T02:13:00Z,00000388,01000608,0000.84,0000.38,0000.14,0000.16,0000.07,0000.23,-000.06,0000.02,-000.03,23.0,00.0,0616.9,30.9
2020-02-12T02:14:00Z,00000388,01000608,0001.03,0000.68,0000.13,0000.24,0000.25,0000.21,-000.02,-000.11,0000.10,23.0,00.0,0616.9,30.9
2020-02-12T02:15:00Z,00000388,01000608,-000.25,0000.01,0000.56,0000.03,-000.20,0000.56,0000.28,0000.40,0000.23,23.0,00.0,0617.0,30.9
2020-02-12T02:16:00Z,00000388,01000608,0000.48,0000.00,-000.38,-000.20,0000.37,0000.05,0000.05,-000.06,-000.00,23.0,00.0,0617.0,30.9
2020-02-12T02:17:00Z,00000388,01000608,0000.34,0001.22,-000.43,-000.30,0000.60,0000.16,-000.02,-000.10,-000.08,23.1,00.0,0617.1,30.9
2020-02-12T02:18:00Z,00000388,01000608,0000.37,0000.91,0000.10,0001.04,0000.35,0000.37,-000.13,-000.02,-000.10,23.1,00.0,0617.1,30.9
2020-02-12T02:19:00Z,00000388,01000608,-001.15,0001.09,-000.03,-000.46,0000.21,0000.15,0000.06,-000.01,-000.11,23.1,00.0,0617.1,30.9
2020-02-12T02:20:00Z,00000388,01000608,0000.83,-000.07,-000.43,-000.16,0000.18,0000.53,0000.13,0000.16,-000.03,23.1,00.0,0617.1,30.9
2020-02-12T02:21:00Z,00000388,01000608,-000.90,0000.71,-000.28,-000.21,0000.31,-000.49,-000.08,-000.03,0000.16,23.1,00.0,0617.2,30.9
2020-02-12T02:22:00Z,00000388,01000608,0002.09,0000.44,0000.23,0000.04,0000.07,0000.23,-000.06,-000.09,-000.02,23.1,00.0,0617.4,30.9
2020-02-12T02:23:00Z,00000388,01000608,0000.80,0000.42,0000.07,0000.39,0000.03,-000.11,-000.04,-000.02,-000.21,23.1,00.0,0617.5,30.9
2020-02-12T02:24:00Z,00000388,01000608,0000.51,0001.08,0000.31,-000.65,0000.05,0000.06,0000.54,0000.29,0000.45,23.1,00.0,0617.6,30.9
2020-02-12T02:25:00Z,00000388,01000608,0000.72,0000.21,0000.09,0000.33,0000.21,0000.48,-000.05,0000.27,0000.22,23.1,00.0,0617.6,30.9
2020-02-12T02:26:00Z,00000388,01000608,0000.36,0000.54,0000.21,0000.04,0000.05,0000.10,0000.11,-000.22,-000.12,23.0,00.0,0617.5,30.9
2020-02-12T02:27:00Z,00000388,01000608,0000.61,0000.64,0000.45,0000.30,0000.57,0000.57,0000.14,0000.25,0000.11,23.0,00.0,0617.4,30.9
2020-02-12T02:28:00Z,00000388,01000608,0001.15,0000.19,-000.35,-000.05,0000.35,-000.09,0000.10,-000.01,0000.16,23.0,00.0,0617.3,30.9
2020-02-12T02:29:00Z,00000388,01000608,0000.33,0000.36,-000.02,0000.16,0000.19,-000.15,0000.05,0000.05,-000.00,23.0,00.0,0617.3,30.9
2020-02-12T02:30:00Z,00000388,01000608,0000.18,0000.55,0000.03,0000.42,0000.07,-000.43,0000.22,0000.07,0000.12,23.0,00.0,0617.3,30.9
2020-02-12T02:31:00Z,00000388,01000608,0000.24,0000.09,0000.05,-000.53,-000.39,-000.26,-000.03,0000.22,-000.08,23.0,00.0,0617.3,30.9
2020-02-12T02:32:00Z,00000388,01000608,-000.64,0000.93,-000.15,0000.11,-000.03,0000.24,-000.17,-000.13,0000.06,23.1,00.0,0617.3,30.9
2020-02-12T02:33:00Z,00000388,01000608,-000.26,0000.07,0000.02,-000.66,0000.78,-000.09,0000.22,0000.16,0000.02,23.1,00.0,0617.4,30.9
2020-02-12T02:34:00Z,00000388,01000608,0001.53,0000.35,0000.33,0000.52,0000.53,-000.15,-000.03,-000.27,-000.06,23.1,00.0,0617.4,30.9
2020-02-12T02:35:00Z,00000388,01000608,0000.19,0000.04,-000.03,-000.78,0000.12,-000.42,-000.02,0000.16,0000.06,23.1,00.0,0617.5,30.9
2020-02-12T02:36:00Z,00000388,01000608,0000.62,0000.67,0000.34,-000.43,0000.26,0000.25,-000.05,-000.16,-000.18,23.1,00.0,0617.5,30.9
2020-02-12T02:37:00Z,00000388,01000608,0001.58,0000.48,0000.03,-000.12,-000.02,0000.15,-000.09,-000.07,0000.16,23.1,00.0,0617.5,30.9
2020-02-12T02:38:00Z,00000388,01000608,0000.25,0000.03,0000.14,-000.34,0000.19,0000.49,0000.07,0000.06,-000.11,23.1,00.0,0617.6,30.9
2020-02-12T02:39:00Z,00000388,01000608,0001.98,0000.47,-000.11,-000.14,0000.16,0000.44,-000.19,-000.02,-000.01,23.1,00.0,0617.6,30.9
2020-02-12T02:40:00Z,00000388,01000608,0000.49,0000.25,0000.27,0000.64,0000.11,0000.15,0000.07,0000.00,0000.01,23.1,00.0,0617.6,30.9
2020-02-12T02:41:00Z,00000388,01000608,0000.01,0000.50,0000.16,-000.10,0000.26,0000.24,-000.02,-000.03,-000.14,23.1,00.0,0617.6,30.9
2020-02-12T02:42:00Z,00000388,01000608,0001.13,0000.80,0000.08,0000.26,0000.28,0000.43,-000.13,-000.08,0000.07,23.1,00.0,0617.6,30.9
2020-02-12T02:43:00Z,00000388,01000608,0001.83,0000.68,0000.12,0000.45,-000.18,0000.40,-000.10,0000.01,-000.11,23.1,00.0,0617.6,30.9
2020-02-12T02:44:00Z,00000388,01000608,0000.80,0000.35,0000.55,-000.70,0000.32,0000.10,0000.09,-000.12,0000.14,23.0,00.0,0617.6,30.9
2020-02-12T02:45:00Z,00000388,01000608,0000.95,0000.16,0000.09,0001.14,0000.35,0000.24,0000.12,0000.06,0000.06,23.0,00.0,0617.6,30.9
2020-02-12T02:46:00Z,00000388,01000608,0000.59,-000.11,0000.12,0000.05,0000.09,0000.18,-000.00,0000.08,-000.03,23.1,00.0,0617.6,30.9
2020-02-12T02:47:00Z,00000380,01000600,0000.42,0000.81,-000.15,-000.30,-000.07,0000.28,-000.09,-000.28,-000.03,23.0,00.0,0617.6,30.9
2020-02-12T02:48:00Z,00000380,01000600,-000.59,0000.28,0000.02,-000.16,0000.38,-000.26,-000.00,0000.35,0000.13,23.0,00.0,0617.6,30.9
2020-02-12T02:49:00Z,00000380,01000600,0000.55,0000.97,0000.53,-000.52,0000.48,0000.11,0000.02,0000.06,-000.08,23.1,00.0,0617.6,30.9
2020-02-12T02:50:00Z,00000380,01000600,0000.21,0000.66,0000.58,0000.09,0000.60,0000.42,0000.08,-000.08,0000.08,23.1,00.0,0617.6,30.9
2020-02-12T02:51:00Z,00000380,01000600,0000.28,0000.14,0000.64,0000.19,0000.43,0000.26,0000.05,0000.01,-000.10,23.1,00.0,0617.7,30.9
2020-02-12T02:52:00Z,00000380,01000600,0000.75,0000.74,0000.12,0000.26,0000.13,0000.29,-000.04,0000.12,0000.17,23.0,00.0,0617.7,30.9
2020-02-12T02:53:00Z,00000380,01000600,0001.72,0000.58,0000.16,0000.24,0000.55,0000.29,-000.03,-000.16,-000.19,23.0,00.0,0617.7,30.9
2020-02-12T02:54:00Z,00000380,01000600,0001.69,0000.41,0000.19,0000.16,0000.31,0000.34,-000.02,-000.10,-000.08,23.0,00.0,0617.7,30.9
2020-02-12T02:55:00Z,00000380,01000600,0000.36,0000.37,-000.18,-000.54,-000.26,0000.29,0000.03,0000.12,0000.13,23.0,00.0,0617.7,30.9
2020-02-12T02:56:00Z,00000380,01000600,0000.81,0000.48,0000.47,-000.09,0000.40,0000.31,-000.08,-000.06,0000.04,23.0,00.0,0617.7,30.9
2020-02-12T02:57:00Z,00000380,41000600,,,,,,,,,,23.0,00.0,0617.6,30.9
2020-02-12T02:58:00Z,00000380,61000600,,,,,,,,,,23.1,00.0,0616.7,30.9
2020-02-12T02:59:00Z,00000380,21000600,,,,,,,,,,23.2,00.0,0616.7,30.9
2020-02-12T03:00:00Z,00000380,21000600,,,,,,,,,,23.2,00.0,0616.7,30.9
2020-02-12T03:01:00Z,00000380,21000600,,,,,,,,,,23.2,00.0,0616.7,30.9
2020-02-12T03:02:00Z,00000380,21000600,,,,,,,,,,23.2,00.0,0616.7,30.9
2020-02-12T03:03:00Z,00000380,61000600,,,,,,,,,,23.2,00.0,0616.7,30.9
2020-02-12T03:04:00Z,00000380,41000600,0000.47,0000.01,0000.13,0000.35,-000.05,0000.24,0000.05,-000.07,-000.01,23.2,00.0,0617.5,30.9
2020-02-12T03:05:00Z,00000380,01000600,-000.48,-000.08,-000.36,0000.93,-000.09,-000.14,-000.11,-000.14,0000.11,23.1,00.0,0617.6,30.9
2020-02-12T03:06:00Z,00000380,01000600,-000.27,0000.04,-000.02,-000.09,0000.12,0000.28,0000.06,0000.27,-000.12,23.1,00.0,0617.6,30.9
2020-02-12T03:07:00Z,00000380,01000600,-000.05,-000.06,0000.70,0000.10,-000.20,0000.17,0000.00,-000.06,0000.01,23.1,00.0,0617.6,30.9
2020-02-12T03:08:00Z,00000380,01000600,-001.33,0000.26,0000.26,0001.02,-000.14,-000.34,-000.05,-000.01,0000.01,23.1,00.0,0617.6,30.9
2020-02-12T03:09:00Z,00000380,01000600,0000.75,-000.25,0000.20,0000.39,0000.09,0000.15,-000.02,-000.16,0000.05,23.1,00.0,0617.6,30.9
2020-02-12T03:10:00Z,00000380,01000600,-000.67,0000.02,-000.01,0000.89,0000.07,-000.27,0000.16,0000.23,-000.06,23.0,00.0,0617.6,30.9